Year,Month,Day,Hour,Minute,Value (Times are PST for temperature in C)
2016,03,29,00,00,5.40
2016,03,29,00,01,5.40
2016,03,29,00,02,5.30
2016,03,29,00,03,5.30
2016,03,29,00,04,5.30
2016,03,29,00,05,5.30
2016,03,29,00,06,5.30
2016,03,29,00,07,5.30
2016,03,29,00,08,5.30
2016,03,29,00,09,5.20
2016,03,29,00,10,5.20
2016,03,29,00,11,5.20
2016,03,29,00,12,5.20
2016,03,29,00,13,5.20
2016,03,29,00,14,5.20
2016,03,29,00,15,5.10
2016,03,29,00,16,5.10
2016,03,29,00,17,5.10
2016,03,29,00,18,5.10
2016,03,29,00,19,5.10
2016,03,29,00,20,5.00
2016,03,29,00,21,5.00
2016,03,29,00,22,5.00
2016,03,29,00,23,4.90
2016,03,29,00,24,4.90
2016,03,29,00,25,4.90
2016,03,29,00,26,4.90
2016,03,29,00,27,4.90
2016,03,29,00,28,4.90
2016,03,29,00,29,4.80
2016,03,29,00,30,4.80
2016,03,29,00,31,4.80
2016,03,29,00,32,4.80
2016,03,29,00,33,4.80
2016,03,29,00,34,4.80
2016,03,29,00,35,4.80
2016,03,29,00,36,4.80
2016,03,29,00,37,4.80
2016,03,29,00,38,4.70
2016,03,29,00,39,4.70
2016,03,29,00,40,4.70
2016,03,29,00,41,4.70
2016,03,29,00,42,4.70
2016,03,29,00,43,4.70
2016,03,29,00,44,4.70
2016,03,29,00,45,4.70
2016,03,29,00,46,4.70
2016,03,29,00,47,4.60
2016,03,29,00,48,4.60
2016,03,29,00,49,4.60
2016,03,29,00,50,4.60
2016,03,29,00,51,4.50
2016,03,29,00,52,4.50
2016,03,29,00,53,4.50
2016,03,29,00,54,4.40
2016,03,29,00,55,4.40
2016,03,29,00,56,4.40
2016,03,29,00,57,4.40
2016,03,29,00,58,4.40
2016,03,29,00,59,4.40
2016,03,29,01,00,4.30
2016,03,29,01,01,4.30
2016,03,29,01,02,4.30
2016,03,29,01,03,4.30
2016,03,29,01,04,4.30
2016,03,29,01,05,4.30
2016,03,29,01,06,4.30
2016,03,29,01,07,4.30
2016,03,29,01,08,4.30
2016,03,29,01,09,4.30
2016,03,29,01,10,4.30
2016,03,29,01,11,4.30
2016,03,29,01,12,4.20
2016,03,29,01,13,4.20
2016,03,29,01,14,4.20
2016,03,29,01,15,4.20
2016,03,29,01,16,4.20
2016,03,29,01,17,4.20
2016,03,29,01,18,4.20
2016,03,29,01,19,4.20
2016,03,29,01,20,4.20
2016,03,29,01,21,4.20
2016,03,29,01,22,4.20
2016,03,29,01,23,4.20
2016,03,29,01,24,4.20
2016,03,29,01,25,4.20
2016,03,29,01,26,4.10
2016,03,29,01,27,4.10
2016,03,29,01,28,4.10
2016,03,29,01,29,4.10
2016,03,29,01,30,4.10
2016,03,29,01,31,4.10
2016,03,29,01,32,4.10
2016,03,29,01,33,4.00
2016,03,29,01,34,4.00
2016,03,29,01,35,4.00
2016,03,29,01,36,4.00
2016,03,29,01,37,4.00
2016,03,29,01,38,4.00
2016,03,29,01,39,3.90
2016,03,29,01,40,3.90
2016,03,29,01,41,3.90
2016,03,29,01,42,3.90
2016,03,29,01,43,3.90
2016,03,29,01,44,3.90
2016,03,29,01,45,3.90
2016,03,29,01,46,3.90
2016,03,29,01,47,3.90
2016,03,29,01,48,3.90
2016,03,29,01,49,3.90
2016,03,29,01,50,3.90
2016,03,29,01,51,3.90
2016,03,29,01,52,3.90
2016,03,29,01,53,3.90
2016,03,29,01,54,3.90
2016,03,29,01,55,3.80
2016,03,29,01,56,3.80
2016,03,29,01,57,3.80
2016,03,29,01,58,3.80
2016,03,29,01,59,3.80
2016,03,29,02,00,3.80
2016,03,29,02,01,3.80
2016,03,29,02,02,3.80
2016,03,29,02,03,3.80
2016,03,29,02,04,3.80
2016,03,29,02,05,3.80
2016,03,29,02,06,3.80
2016,03,29,02,07,3.70
2016,03,29,02,08,3.70
2016,03,29,02,09,3.70
2016,03,29,02,10,3.70
2016,03,29,02,11,3.70
2016,03,29,02,12,3.70
2016,03,29,02,13,3.70
2016,03,29,02,14,3.70
2016,03,29,02,15,3.70
2016,03,29,02,16,3.70
2016,03,29,02,17,3.70
2016,03,29,02,18,3.70
2016,03,29,02,19,3.80
2016,03,29,02,20,3.70
2016,03,29,02,21,3.80
2016,03,29,02,22,3.80
2016,03,29,02,23,3.80
2016,03,29,02,24,3.80
2016,03,29,02,25,3.80
2016,03,29,02,26,3.80
2016,03,29,02,27,3.80
2016,03,29,02,28,3.80
2016,03,29,02,29,3.80
2016,03,29,02,30,3.80
2016,03,29,02,31,3.80
2016,03,29,02,32,3.80
2016,03,29,02,33,3.80
2016,03,29,02,34,3.80
2016,03,29,02,35,3.80
2016,03,29,02,36,3.70
2016,03,29,02,37,3.70
2016,03,29,02,38,3.70
2016,03,29,02,39,3.70
2016,03,29,02,40,3.70
2016,03,29,02,41,3.70
2016,03,29,02,42,3.60
2016,03,29,02,43,3.60
2016,03,29,02,44,3.60
2016,03,29,02,45,3.60
2016,03,29,02,46,3.60
2016,03,29,02,47,3.60
2016,03,29,02,48,3.60
2016,03,29,02,49,3.50
2016,03,29,02,50,3.50
2016,03,29,02,51,3.50
2016,03,29,02,52,3.50
2016,03,29,02,53,3.40
2016,03,29,02,54,3.40
2016,03,29,02,55,3.40
2016,03,29,02,56,3.40
2016,03,29,02,57,3.40
2016,03,29,02,58,3.40
2016,03,29,02,59,3.40
2016,03,29,03,00,3.30
2016,03,29,03,01,3.30
2016,03,29,03,02,3.30
2016,03,29,03,03,3.30
2016,03,29,03,04,3.30
2016,03,29,03,05,3.30
2016,03,29,03,06,3.30
2016,03,29,03,07,3.30
2016,03,29,03,08,3.20
2016,03,29,03,09,3.20
2016,03,29,03,10,3.20
2016,03,29,03,11,3.30
2016,03,29,03,12,3.30
2016,03,29,03,13,3.30
2016,03,29,03,14,3.30
2016,03,29,03,15,3.30
2016,03,29,03,16,3.30
2016,03,29,03,17,3.30
2016,03,29,03,18,3.20
2016,03,29,03,19,3.20
2016,03,29,03,20,3.20
2016,03,29,03,21,3.20
2016,03,29,03,22,3.20
2016,03,29,03,23,3.20
2016,03,29,03,24,3.20
2016,03,29,03,25,3.20
2016,03,29,03,26,3.20
2016,03,29,03,27,3.20
2016,03,29,03,28,3.20
2016,03,29,03,29,3.20
2016,03,29,03,30,3.10
2016,03,29,03,31,3.10
2016,03,29,03,32,3.10
2016,03,29,03,33,3.10
2016,03,29,03,34,3.10
2016,03,29,03,35,3.10
2016,03,29,03,36,3.10
2016,03,29,03,37,3.10
2016,03,29,03,38,3.10
2016,03,29,03,39,3.10
2016,03,29,03,40,3.00
2016,03,29,03,41,3.10
2016,03,29,03,42,3.00
2016,03,29,03,43,3.00
2016,03,29,03,44,3.00
2016,03,29,03,45,3.00
2016,03,29,03,46,3.00
2016,03,29,03,47,3.00
2016,03,29,03,48,3.00
2016,03,29,03,49,3.00
2016,03,29,03,50,3.00
2016,03,29,03,51,2.90
2016,03,29,03,52,2.90
2016,03,29,03,53,2.90
2016,03,29,03,54,2.90
2016,03,29,03,55,2.90
2016,03,29,03,56,2.90
2016,03,29,03,57,2.90
2016,03,29,03,58,2.90
2016,03,29,03,59,2.90
2016,03,29,04,00,2.90
2016,03,29,04,01,2.90
2016,03,29,04,02,2.90
2016,03,29,04,03,2.90
2016,03,29,04,04,2.90
2016,03,29,04,05,2.90
2016,03,29,04,06,2.90
2016,03,29,04,07,2.80
2016,03,29,04,08,2.80
2016,03,29,04,09,2.80
2016,03,29,04,10,2.80
2016,03,29,04,11,2.80
2016,03,29,04,12,2.70
2016,03,29,04,13,2.70
2016,03,29,04,14,2.70
2016,03,29,04,15,2.70
2016,03,29,04,16,2.70
2016,03,29,04,17,2.70
2016,03,29,04,18,2.70
2016,03,29,04,19,2.70
2016,03,29,04,20,2.70
2016,03,29,04,21,2.60
2016,03,29,04,22,2.60
2016,03,29,04,23,2.60
2016,03,29,04,24,2.60
2016,03,29,04,25,2.60
2016,03,29,04,26,2.60
2016,03,29,04,27,2.60
2016,03,29,04,28,2.60
2016,03,29,04,29,2.60
2016,03,29,04,30,2.60
2016,03,29,04,31,2.50
2016,03,29,04,32,2.50
2016,03,29,04,33,2.50
2016,03,29,04,34,2.50
2016,03,29,04,35,2.50
2016,03,29,04,36,2.50
2016,03,29,04,37,2.50
2016,03,29,04,38,2.50
2016,03,29,04,39,2.50
2016,03,29,04,40,2.50
2016,03,29,04,41,2.50
2016,03,29,04,42,2.50
2016,03,29,04,43,2.50
2016,03,29,04,44,2.40
2016,03,29,04,45,2.40
2016,03,29,04,46,2.40
2016,03,29,04,47,2.40
2016,03,29,04,48,2.40
2016,03,29,04,49,2.40
2016,03,29,04,50,2.40
2016,03,29,04,51,2.40
2016,03,29,04,52,2.40
2016,03,29,04,53,2.40
2016,03,29,04,54,2.40
2016,03,29,04,55,2.40
2016,03,29,04,56,2.40
2016,03,29,04,57,2.40
2016,03,29,04,58,2.40
2016,03,29,04,59,2.40
2016,03,29,05,00,2.40
2016,03,29,05,01,2.40
2016,03,29,05,02,2.40
2016,03,29,05,03,2.40
2016,03,29,05,04,2.40
2016,03,29,05,05,2.40
2016,03,29,05,06,2.30
2016,03,29,05,07,2.30
2016,03,29,05,08,2.30
2016,03,29,05,09,2.30
2016,03,29,05,10,2.30
2016,03,29,05,11,2.30
2016,03,29,05,12,2.30
2016,03,29,05,13,2.30
2016,03,29,05,14,2.30
2016,03,29,05,15,2.30
2016,03,29,05,16,2.30
2016,03,29,05,17,2.30
2016,03,29,05,18,2.30
2016,03,29,05,19,2.20
2016,03,29,05,20,2.20
2016,03,29,05,21,2.20
2016,03,29,05,22,2.20
2016,03,29,05,23,2.20
2016,03,29,05,24,2.20
2016,03,29,05,25,2.20
2016,03,29,05,26,2.20
2016,03,29,05,27,2.20
2016,03,29,05,28,2.20
2016,03,29,05,29,2.20
2016,03,29,05,30,2.20
2016,03,29,05,31,2.20
2016,03,29,05,32,2.20
2016,03,29,05,33,2.20
2016,03,29,05,34,2.20
2016,03,29,05,35,2.20
2016,03,29,05,36,2.20
2016,03,29,05,37,2.20
2016,03,29,05,38,2.20
2016,03,29,05,39,2.20
2016,03,29,05,40,2.30
2016,03,29,05,41,2.30
2016,03,29,05,42,2.30
2016,03,29,05,43,2.30
2016,03,29,05,44,2.30
2016,03,29,05,45,2.30
2016,03,29,05,46,2.30
2016,03,29,05,47,2.30
2016,03,29,05,48,2.30
2016,03,29,05,49,2.20
2016,03,29,05,50,2.20
2016,03,29,05,51,2.20
2016,03,29,05,52,2.20
2016,03,29,05,53,2.20
2016,03,29,05,54,2.20
2016,03,29,05,55,2.20
2016,03,29,05,56,2.20
2016,03,29,05,57,2.20
2016,03,29,05,58,2.20
2016,03,29,05,59,2.20
2016,03,29,06,00,2.20
2016,03,29,06,01,2.20
2016,03,29,06,02,2.20
2016,03,29,06,03,2.20
2016,03,29,06,04,2.20
2016,03,29,06,05,2.20
2016,03,29,06,06,2.20
2016,03,29,06,07,2.20
2016,03,29,06,08,2.20
2016,03,29,06,09,2.10
2016,03,29,06,10,2.10
2016,03,29,06,11,2.10
2016,03,29,06,12,2.10
2016,03,29,06,13,2.10
2016,03,29,06,14,2.10
2016,03,29,06,15,2.10
2016,03,29,06,16,2.10
2016,03,29,06,17,2.10
2016,03,29,06,18,2.10
2016,03,29,06,19,2.10
2016,03,29,06,20,2.00
2016,03,29,06,21,2.00
2016,03,29,06,22,2.00
2016,03,29,06,23,1.90
2016,03,29,06,24,2.00
2016,03,29,06,25,1.90
2016,03,29,06,26,1.90
2016,03,29,06,27,1.90
2016,03,29,06,28,1.90
2016,03,29,06,29,1.90
2016,03,29,06,30,1.90
2016,03,29,06,31,1.90
2016,03,29,06,32,1.90
2016,03,29,06,33,1.90
2016,03,29,06,34,1.90
2016,03,29,06,35,2.00
2016,03,29,06,36,2.00
2016,03,29,06,37,2.10
2016,03,29,06,38,2.10
2016,03,29,06,39,2.10
2016,03,29,06,40,2.10
2016,03,29,06,41,2.20
2016,03,29,06,42,2.10
2016,03,29,06,43,2.10
2016,03,29,06,44,2.10
2016,03,29,06,45,2.10
2016,03,29,06,46,2.10
2016,03,29,06,47,2.10
2016,03,29,06,48,2.00
2016,03,29,06,49,2.00
2016,03,29,06,50,1.90
2016,03,29,06,51,1.90
2016,03,29,06,52,1.90
2016,03,29,06,53,1.80
2016,03,29,06,54,1.80
2016,03,29,06,55,1.80
2016,03,29,06,56,1.80
2016,03,29,06,57,1.80
2016,03,29,06,58,1.80
2016,03,29,06,59,1.70
2016,03,29,07,00,1.70
2016,03,29,07,01,1.70
2016,03,29,07,02,1.70
2016,03,29,07,03,1.70
2016,03,29,07,04,1.70
2016,03,29,07,05,1.70
2016,03,29,07,06,1.60
2016,03,29,07,07,1.60
2016,03,29,07,08,1.60
2016,03,29,07,09,1.60
2016,03,29,07,10,1.60
2016,03,29,07,11,1.60
2016,03,29,07,12,1.60
2016,03,29,07,13,1.60
2016,03,29,07,14,1.60
2016,03,29,07,15,1.60
2016,03,29,07,16,1.60
2016,03,29,07,17,1.60
2016,03,29,07,18,1.60
2016,03,29,07,19,1.60
2016,03,29,07,20,1.60
2016,03,29,07,21,1.60
2016,03,29,07,22,1.60
2016,03,29,07,23,1.60
2016,03,29,07,24,1.60
2016,03,29,07,25,1.60
2016,03,29,07,26,1.60
2016,03,29,07,27,1.70
2016,03,29,07,28,1.70
2016,03,29,07,29,1.70
2016,03,29,07,30,1.70
2016,03,29,07,31,1.60
2016,03,29,07,32,1.70
2016,03,29,07,33,1.70
2016,03,29,07,34,1.70
2016,03,29,07,35,1.70
2016,03,29,07,36,1.70
2016,03,29,07,37,1.70
2016,03,29,07,38,1.70
2016,03,29,07,39,1.70
2016,03,29,07,40,1.70
2016,03,29,07,41,1.70
2016,03,29,07,42,1.70
2016,03,29,07,43,1.70
2016,03,29,07,44,1.70
2016,03,29,07,45,1.70
2016,03,29,07,46,1.70
2016,03,29,07,47,1.70
2016,03,29,07,48,1.80
2016,03,29,07,49,1.80
2016,03,29,07,50,1.80
2016,03,29,07,51,1.80
2016,03,29,07,52,1.80
2016,03,29,07,53,1.80
2016,03,29,07,54,1.80
2016,03,29,07,55,1.80
2016,03,29,07,56,1.80
2016,03,29,07,57,1.80
2016,03,29,07,58,1.90
2016,03,29,07,59,1.90
2016,03,29,08,00,1.90
2016,03,29,08,01,2.00
2016,03,29,08,02,2.10
2016,03,29,08,03,2.10
2016,03,29,08,04,2.20
2016,03,29,08,05,2.20
2016,03,29,08,06,2.30
2016,03,29,08,07,2.30
2016,03,29,08,08,2.30
2016,03,29,08,09,2.30
2016,03,29,08,10,2.40
2016,03,29,08,11,2.40
2016,03,29,08,12,2.40
2016,03,29,08,13,2.40
2016,03,29,08,14,2.40
2016,03,29,08,15,2.40
2016,03,29,08,16,2.50
2016,03,29,08,17,2.50
2016,03,29,08,18,2.60
2016,03,29,08,19,2.60
2016,03,29,08,20,2.60
2016,03,29,08,21,2.60
2016,03,29,08,22,2.70
2016,03,29,08,23,2.70
2016,03,29,08,24,2.80
2016,03,29,08,25,2.80
2016,03,29,08,26,2.90
2016,03,29,08,27,3.00
2016,03,29,08,28,3.10
2016,03,29,08,29,3.10
2016,03,29,08,30,3.10
2016,03,29,08,31,3.10
2016,03,29,08,32,3.10
2016,03,29,08,33,3.10
2016,03,29,08,34,3.20
2016,03,29,08,35,3.20
2016,03,29,08,36,3.20
2016,03,29,08,37,3.20
2016,03,29,08,38,3.20
2016,03,29,08,39,3.30
2016,03,29,08,40,3.30
2016,03,29,08,41,3.30
2016,03,29,08,42,3.40
2016,03,29,08,43,3.40
2016,03,29,08,44,3.50
2016,03,29,08,45,3.60
2016,03,29,08,46,3.60
2016,03,29,08,47,3.70
2016,03,29,08,48,3.70
2016,03,29,08,49,3.70
2016,03,29,08,50,3.80
2016,03,29,08,51,3.80
2016,03,29,08,52,3.80
2016,03,29,08,53,3.80
2016,03,29,08,54,3.80
2016,03,29,08,55,3.80
2016,03,29,08,56,3.90
2016,03,29,08,57,3.90
2016,03,29,08,58,4.00
2016,03,29,08,59,4.10
2016,03,29,09,00,4.10
2016,03,29,09,01,4.20
2016,03,29,09,02,4.20
2016,03,29,09,03,4.30
2016,03,29,09,04,4.30
2016,03,29,09,05,4.30
2016,03,29,09,06,4.30
2016,03,29,09,07,4.30
2016,03,29,09,08,4.30
2016,03,29,09,09,4.30
2016,03,29,09,10,4.30
2016,03,29,09,11,4.30
2016,03,29,09,12,4.30
2016,03,29,09,13,4.30
2016,03,29,09,14,4.30
2016,03,29,09,15,4.30
2016,03,29,09,16,4.30
2016,03,29,09,17,4.30
2016,03,29,09,18,4.30
2016,03,29,09,19,4.30
2016,03,29,09,20,4.30
2016,03,29,09,21,4.30
2016,03,29,09,22,4.30
2016,03,29,09,23,4.40
2016,03,29,09,24,4.40
2016,03,29,09,25,4.50
2016,03,29,09,26,4.60
2016,03,29,09,27,4.70
2016,03,29,09,28,4.70
2016,03,29,09,29,4.70
2016,03,29,09,30,4.70
2016,03,29,09,31,4.80
2016,03,29,09,32,4.80
2016,03,29,09,33,4.80
2016,03,29,09,34,4.80
2016,03,29,09,35,4.90
2016,03,29,09,36,4.90
2016,03,29,09,37,4.90
2016,03,29,09,38,4.90
2016,03,29,09,39,4.90
2016,03,29,09,40,4.90
2016,03,29,09,41,5.00
2016,03,29,09,42,5.00
2016,03,29,09,43,5.00
2016,03,29,09,44,5.00
2016,03,29,09,45,5.10
2016,03,29,09,46,5.10
2016,03,29,09,47,5.20
2016,03,29,09,48,5.20
2016,03,29,09,49,5.30
2016,03,29,09,50,5.30
2016,03,29,09,51,5.40
2016,03,29,09,52,5.40
2016,03,29,09,53,5.50
2016,03,29,09,54,5.60
2016,03,29,09,55,5.70
2016,03,29,09,56,5.70
2016,03,29,09,57,5.80
2016,03,29,09,58,5.80
2016,03,29,09,59,5.90
2016,03,29,10,00,5.90
2016,03,29,10,01,6.00
2016,03,29,10,02,6.10
2016,03,29,10,03,6.20
2016,03,29,10,04,6.20
2016,03,29,10,05,6.30
2016,03,29,10,06,6.30
2016,03,29,10,07,6.40
2016,03,29,10,08,6.50
2016,03,29,10,09,6.60
2016,03,29,10,10,6.60
2016,03,29,10,11,6.70
2016,03,29,10,12,6.70
2016,03,29,10,13,6.80
2016,03,29,10,14,6.80
2016,03,29,10,15,6.90
2016,03,29,10,16,7.00
2016,03,29,10,17,7.10
2016,03,29,10,18,7.20
2016,03,29,10,19,7.30
2016,03,29,10,20,7.30
2016,03,29,10,21,7.40
2016,03,29,10,22,7.40
2016,03,29,10,23,7.40
2016,03,29,10,24,7.40
2016,03,29,10,25,7.40
2016,03,29,10,26,7.50
2016,03,29,10,27,7.50
2016,03,29,10,28,7.60
2016,03,29,10,29,7.60
2016,03,29,10,30,7.60
2016,03,29,10,31,7.70
2016,03,29,10,32,7.70
2016,03,29,10,33,7.70
2016,03,29,10,34,7.70
2016,03,29,10,35,7.80
2016,03,29,10,36,7.80
2016,03,29,10,37,7.80
2016,03,29,10,38,7.90
2016,03,29,10,39,7.90
2016,03,29,10,40,7.90
2016,03,29,10,41,8.00
2016,03,29,10,42,8.10
2016,03,29,10,43,8.20
2016,03,29,10,44,8.30
2016,03,29,10,45,8.40
2016,03,29,10,46,8.60
2016,03,29,10,47,8.70
2016,03,29,10,48,8.80
2016,03,29,10,49,8.90
2016,03,29,10,50,8.90
2016,03,29,10,51,9.10
2016,03,29,10,52,9.20
2016,03,29,10,53,9.20
2016,03,29,10,54,9.30
2016,03,29,10,55,9.40
2016,03,29,10,56,9.40
2016,03,29,10,57,9.50
2016,03,29,10,58,9.50
2016,03,29,10,59,9.50
2016,03,29,11,00,9.50
2016,03,29,11,01,9.60
2016,03,29,11,02,9.70
2016,03,29,11,03,9.80
2016,03,29,11,04,9.90
2016,03,29,11,05,10.00
2016,03,29,11,06,10.10
2016,03,29,11,07,10.10
2016,03,29,11,08,10.10
2016,03,29,11,09,10.10
2016,03,29,11,10,10.10
2016,03,29,11,11,10.20
2016,03,29,11,12,10.30
2016,03,29,11,13,10.40
2016,03,29,11,14,10.40
2016,03,29,11,15,10.50
2016,03,29,11,16,10.60
2016,03,29,11,17,10.60
2016,03,29,11,18,10.60
2016,03,29,11,19,10.60
2016,03,29,11,20,10.60
2016,03,29,11,21,10.60
2016,03,29,11,22,10.70
2016,03,29,11,23,10.80
2016,03,29,11,24,10.90
2016,03,29,11,25,10.90
2016,03,29,11,26,11.00
2016,03,29,11,27,11.10
2016,03,29,11,28,11.20
2016,03,29,11,29,11.20
2016,03,29,11,30,11.30
2016,03,29,11,31,11.40
2016,03,29,11,32,11.50
2016,03,29,11,33,11.60
2016,03,29,11,34,11.70
2016,03,29,11,35,11.80
2016,03,29,11,36,11.90
2016,03,29,11,37,11.90
2016,03,29,11,38,12.10
2016,03,29,11,39,12.10
2016,03,29,11,40,12.20
2016,03,29,11,41,12.30
2016,03,29,11,42,12.30
2016,03,29,11,43,12.40
2016,03,29,11,44,12.40
2016,03,29,11,45,12.50
2016,03,29,11,46,12.60
2016,03,29,11,47,12.70
2016,03,29,11,48,12.70
2016,03,29,11,49,12.80
2016,03,29,11,50,12.80
2016,03,29,11,51,12.90
2016,03,29,11,52,12.90
2016,03,29,11,53,12.80
2016,03,29,11,54,12.70
2016,03,29,11,55,12.60
2016,03,29,11,56,12.70
2016,03,29,11,57,12.70
2016,03,29,11,58,12.60
2016,03,29,11,59,12.60
2016,03,29,12,00,12.70
2016,03,29,12,01,12.70
2016,03,29,12,02,12.70
2016,03,29,12,03,12.80
2016,03,29,12,04,12.80
2016,03,29,12,05,12.80
2016,03,29,12,06,12.80
2016,03,29,12,07,12.80
2016,03,29,12,08,12.90
2016,03,29,12,09,12.90
2016,03,29,12,10,13.00
2016,03,29,12,11,13.10
2016,03,29,12,12,13.20
2016,03,29,12,13,13.20
2016,03,29,12,14,13.30
2016,03,29,12,15,13.30
2016,03,29,12,16,13.30
2016,03,29,12,17,13.40
2016,03,29,12,18,13.40
2016,03,29,12,19,13.50
2016,03,29,12,20,13.60
2016,03,29,12,21,13.60
2016,03,29,12,22,13.60
2016,03,29,12,23,13.70
2016,03,29,12,24,13.70
2016,03,29,12,25,13.70
2016,03,29,12,26,13.60
2016,03,29,12,27,13.70
2016,03,29,12,28,13.70
2016,03,29,12,29,13.70
2016,03,29,12,30,13.80
2016,03,29,12,31,13.90
2016,03,29,12,32,14.00
2016,03,29,12,33,14.10
2016,03,29,12,35,14.30
2016,03,29,12,36,14.30
2016,03,29,12,37,14.40
2016,03,29,12,38,14.50
2016,03,29,12,39,14.60
2016,03,29,12,40,14.70
2016,03,29,12,41,14.80
2016,03,29,12,42,14.80
2016,03,29,12,43,14.90
2016,03,29,12,44,14.90
2016,03,29,12,45,14.90
2016,03,29,12,46,15.00
2016,03,29,12,47,15.10
2016,03,29,12,48,15.20
2016,03,29,12,49,15.20
2016,03,29,12,50,15.30
2016,03,29,12,51,15.30
2016,03,29,12,52,15.40
2016,03,29,12,53,15.50
2016,03,29,12,54,15.60
2016,03,29,12,55,15.60
2016,03,29,12,56,15.60
2016,03,29,12,57,15.70
2016,03,29,12,58,15.70
2016,03,29,12,59,15.80
2016,03,29,13,00,15.80
2016,03,29,13,01,15.80
2016,03,29,13,02,15.90
2016,03,29,13,03,15.90
2016,03,29,13,04,16.00
2016,03,29,13,05,16.10
2016,03,29,13,06,16.10
2016,03,29,13,07,16.20
2016,03,29,13,08,16.30
2016,03,29,13,09,16.30
2016,03,29,13,10,16.40
2016,03,29,13,11,16.40
2016,03,29,13,12,16.50
2016,03,29,13,13,16.60
2016,03,29,13,14,16.70
2016,03,29,13,15,16.70
2016,03,29,13,16,16.70
2016,03,29,13,17,16.70
2016,03,29,13,18,16.70
2016,03,29,13,19,16.70
2016,03,29,13,20,16.70
2016,03,29,13,21,16.70
2016,03,29,13,22,16.80
2016,03,29,13,23,16.90
2016,03,29,13,24,17.00
2016,03,29,13,25,17.10
2016,03,29,13,26,17.20
2016,03,29,13,27,17.30
2016,03,29,13,28,17.30
2016,03,29,13,29,17.40
2016,03,29,13,30,17.50
2016,03,29,13,31,17.50
2016,03,29,13,32,17.50
2016,03,29,13,33,17.40
2016,03,29,13,34,17.30
2016,03,29,13,35,17.30
2016,03,29,13,36,17.40
2016,03,29,13,37,17.30
2016,03,29,13,38,17.40
2016,03,29,13,39,17.40
2016,03,29,13,40,17.50
2016,03,29,13,41,17.60
2016,03,29,13,42,17.60
2016,03,29,13,43,17.60
2016,03,29,13,44,17.60
2016,03,29,13,45,17.60
2016,03,29,13,46,17.70
2016,03,29,13,47,17.80
2016,03,29,13,48,17.80
2016,03,29,13,49,17.90
2016,03,29,13,50,18.00
2016,03,29,13,51,18.10
2016,03,29,13,52,18.20
2016,03,29,13,53,18.30
2016,03,29,13,54,18.30
2016,03,29,13,55,18.40
2016,03,29,13,56,18.50
2016,03,29,13,57,18.60
2016,03,29,13,58,18.70
2016,03,29,13,59,18.70
2016,03,29,14,00,18.70
2016,03,29,14,01,18.80
2016,03,29,14,02,18.80
2016,03,29,14,03,18.90
2016,03,29,14,04,18.80
2016,03,29,14,05,18.90
2016,03,29,14,06,18.90
2016,03,29,14,07,19.00
2016,03,29,14,08,19.10
2016,03,29,14,09,19.20
2016,03,29,14,10,19.20
2016,03,29,14,11,19.20
2016,03,29,14,12,19.20
2016,03,29,14,13,19.30
2016,03,29,14,14,19.20
2016,03,29,14,15,19.30
2016,03,29,14,16,19.30
2016,03,29,14,17,19.30
2016,03,29,14,18,19.30
2016,03,29,14,19,19.30
2016,03,29,14,20,19.30
2016,03,29,14,21,19.30
2016,03,29,14,22,19.30
2016,03,29,14,23,19.40
2016,03,29,14,24,19.50
2016,03,29,14,25,19.60
2016,03,29,14,26,19.60
2016,03,29,14,27,19.70
2016,03,29,14,28,19.80
2016,03,29,14,29,19.80
2016,03,29,14,30,19.80
2016,03,29,14,31,19.90
2016,03,29,14,32,19.90
2016,03,29,14,33,19.90
2016,03,29,14,34,19.90
2016,03,29,14,35,19.90
2016,03,29,14,36,20.00
2016,03,29,14,37,20.10
2016,03,29,14,38,20.10
2016,03,29,14,39,20.10
2016,03,29,14,40,19.90
2016,03,29,14,41,19.90
2016,03,29,14,42,20.00
2016,03,29,14,43,20.10
2016,03,29,14,44,20.20
2016,03,29,14,45,20.20
2016,03,29,14,46,20.30
2016,03,29,14,47,20.30
2016,03,29,14,48,20.30
2016,03,29,14,49,20.40
2016,03,29,14,50,20.50
2016,03,29,14,51,20.60
2016,03,29,14,52,20.60
2016,03,29,14,53,20.70
2016,03,29,14,54,20.70
2016,03,29,14,55,20.70
2016,03,29,14,56,20.80
2016,03,29,14,57,20.70
2016,03,29,14,59,20.80
2016,03,29,15,00,20.70
2016,03,29,15,01,20.60
2016,03,29,15,02,20.40
2016,03,29,15,03,20.40
2016,03,29,15,04,20.40
2016,03,29,15,05,20.40
2016,03,29,15,06,20.40
2016,03,29,15,07,20.40
2016,03,29,15,08,20.50
2016,03,29,15,09,20.60
2016,03,29,15,10,20.60
2016,03,29,15,11,20.70
2016,03,29,15,12,20.60
2016,03,29,15,13,20.70
2016,03,29,15,14,20.70
2016,03,29,15,15,20.70
2016,03,29,15,16,20.80
2016,03,29,15,17,20.80
2016,03,29,15,18,20.70
2016,03,29,15,19,20.70
2016,03,29,15,20,20.70
2016,03,29,15,21,20.70
2016,03,29,15,22,20.60
2016,03,29,15,23,20.70
2016,03,29,15,24,20.70
2016,03,29,15,25,20.80
2016,03,29,15,26,20.90
2016,03,29,15,27,20.90
2016,03,29,15,28,21.00
2016,03,29,15,29,20.90
2016,03,29,15,30,21.00
2016,03,29,15,31,21.10
2016,03,29,15,32,21.10
2016,03,29,15,33,21.10
2016,03,29,15,34,21.20
2016,03,29,15,35,21.20
2016,03,29,15,36,21.20
2016,03,29,15,37,21.20
2016,03,29,15,38,21.30
2016,03,29,15,39,21.30
2016,03,29,15,40,21.40
2016,03,29,15,41,21.40
2016,03,29,15,42,21.40
2016,03,29,15,43,21.50
2016,03,29,15,44,21.50
2016,03,29,15,45,21.60
2016,03,29,15,46,21.60
2016,03,29,15,47,21.60
2016,03,29,15,48,21.60
2016,03,29,15,49,21.60
2016,03,29,15,50,21.70
2016,03,29,15,51,21.70
2016,03,29,15,53,21.70
2016,03,29,15,54,21.70
2016,03,29,15,55,21.70
2016,03,29,15,56,21.70
2016,03,29,15,57,21.80
2016,03,29,15,58,21.80
2016,03,29,15,59,21.90
2016,03,29,16,00,22.00
2016,03,29,16,01,22.10
2016,03,29,16,02,22.10
2016,03,29,16,03,22.10
2016,03,29,16,04,22.10
2016,03,29,16,05,22.10
2016,03,29,16,06,22.10
2016,03,29,16,07,22.10
2016,03,29,16,08,22.10
2016,03,29,16,09,22.10
2016,03,29,16,10,22.20
2016,03,29,16,11,22.20
2016,03,29,16,12,22.20
2016,03,29,16,13,22.20
2016,03,29,16,14,22.20
2016,03,29,16,15,22.20
2016,03,29,16,16,22.20
2016,03,29,16,17,22.20
2016,03,29,16,18,22.20
2016,03,29,16,19,22.20
2016,03,29,16,20,22.20
2016,03,29,16,21,22.20
2016,03,29,16,22,22.20
2016,03,29,16,23,22.20
2016,03,29,16,24,22.30
2016,03,29,16,25,22.30
2016,03,29,16,26,22.40
2016,03,29,16,27,22.50
2016,03,29,16,28,22.60
2016,03,29,16,29,22.60
2016,03,29,16,30,22.50
2016,03,29,16,31,22.40
2016,03,29,16,32,22.20
2016,03,29,16,33,22.00
2016,03,29,16,34,21.80
2016,03,29,16,35,21.70
2016,03,29,16,36,21.70
2016,03,29,16,37,21.70
2016,03,29,16,38,21.70
2016,03,29,16,39,21.80
2016,03,29,16,40,21.90
2016,03,29,16,41,21.90
2016,03,29,16,42,22.10
2016,03,29,16,43,22.10
2016,03,29,16,44,22.20
2016,03,29,16,45,22.20
2016,03,29,16,46,22.20
2016,03,29,16,47,22.20
2016,03,29,16,48,22.20
2016,03,29,16,49,22.20
2016,03,29,16,50,22.20
2016,03,29,16,51,22.20
2016,03,29,16,52,22.20
2016,03,29,16,53,22.30
2016,03,29,16,54,22.30
2016,03,29,16,55,22.40
2016,03,29,16,56,22.40
2016,03,29,16,57,22.50
2016,03,29,16,58,22.50
2016,03,29,16,59,22.60
2016,03,29,17,00,22.60
2016,03,29,17,01,22.60
2016,03,29,17,02,22.60
2016,03,29,17,03,22.60
2016,03,29,17,04,22.60
2016,03,29,17,05,22.70
2016,03,29,17,06,22.70
2016,03,29,17,07,22.60
2016,03,29,17,08,22.70
2016,03,29,17,09,22.70
2016,03,29,17,10,22.70
2016,03,29,17,11,22.70
2016,03,29,17,12,22.70
2016,03,29,17,13,22.60
2016,03,29,17,14,22.60
2016,03,29,17,15,22.50
2016,03,29,17,16,22.40
2016,03,29,17,17,22.40
2016,03,29,17,18,22.30
2016,03,29,17,19,22.30
2016,03,29,17,20,22.30
2016,03,29,17,21,22.30
2016,03,29,17,22,22.20
2016,03,29,17,23,22.20
2016,03,29,17,24,22.30
2016,03,29,17,25,22.30
2016,03,29,17,26,22.30
2016,03,29,17,27,22.30
2016,03,29,17,28,22.30
2016,03,29,17,29,22.30
2016,03,29,17,30,22.30
2016,03,29,17,31,22.20
2016,03,29,17,32,22.20
2016,03,29,17,33,22.10
2016,03,29,17,34,22.10
2016,03,29,17,35,22.10
2016,03,29,17,36,21.90
2016,03,29,17,37,21.90
2016,03,29,17,38,21.80
2016,03,29,17,39,21.70
2016,03,29,17,40,21.60
2016,03,29,17,41,21.50
2016,03,29,17,42,21.40
2016,03,29,17,43,21.30
2016,03,29,17,44,21.20
2016,03,29,17,45,21.10
2016,03,29,17,46,21.10
2016,03,29,17,47,21.00
2016,03,29,17,48,20.90
2016,03,29,17,49,20.70
2016,03,29,17,50,20.60
2016,03,29,17,51,20.60